Miscellaneous Local Product
Issued by NWS North Platte, NE

Home | Current Version | Previous Version | Text Only | Print | Product List | Glossary On
Versions: 1 2 3 4 5 6 7 8 9 10 11 12 13 14 15 16 17 18 19 20 21 22 23 24 25 26 27 28 29 30 31 32 33 34 35 36 37 38 39 40 41 42 43 44 45 46 47 48 49 50
000
AXUS43 KLBF 260910
MISLBF


WESTERN AND NORTH CENTRAL NEBRASKA HOURLY WEATHER ROUNDUP
NATIONAL WEATHER SERVICE NORTH PLATTE NE
400 AM CDT TUE MAY 26 2015

***STATIONS NOT REPORTING VARIABLES SUCH AS SKY/WEATHER OR
PRESSURE ARE PROVIDED BY THE NEBRASKA DEPARTMENT OF
ROADS...RAWS...AND APRS NETWORKS...AND ARE NOT UNDER
NATIONAL WEATHER SERVICE QUALITY CONTROL***

...OBSERVATIONS IN AND NEAR THE EASTERN PANHANDLE OF NEBRASKA...

CITY           SKY/WX    TMP DP  RH WIND       PRES   REMARKS
PINE RIDGE     CLOUDY    53  51  93 NE3       29.94S
CHADRON        CLOUDY    54  53  97 N5        29.94S
ALLIANCE       CLOUDY    51  50  96 CALM      29.94R
SIDNEY         PTCLDY    46  44  93 NW7       29.97S
WHITECLAY        N/A     52  50  93 N3          N/A
BIG SPRINGS      N/A     52  50  93 W3          N/A
$$

...OBSERVATIONS IN NORTH CENTRAL NEBRASKA...

CITY           SKY/WX    TMP DP  RH WIND       PRES   REMARKS
VALENTINE      PTCLDY    53  48  83 N8        29.91R
THEDFORD       MOCLDY    54  53  95 N7        29.90S
AINSWORTH      CLEAR     51  51  99 N7        29.89R
O`NEILL        MOCLDY    55  54  97 N12       29.83S
ORD            CLOUDY    59  56  89 NW9       29.80F
BROKEN BOW     CLOUDY    58  55  90 N10       29.83F
VALENTINE NWR    N/A     52  52  99 N6          N/A
SPRINGVIEW       N/A     50  48  93 CALM        N/A
HALSEY           N/A     55  55 100 NW6         N/A
ROSE             N/A     54  54  99 SW6         N/A
NEWPORT          N/A     55  54  97 NW7         N/A
SARGENT          N/A     56  55  96 CALM        N/A
COMSTOCK         N/A     62  62  99 S7          N/A
EWING            N/A     57  55  95 N5G13       N/A
$$

...OBSERVATIONS IN SOUTHWEST NEBRASKA AND FAR NORTHEAST COLORADO...

CITY           SKY/WX    TMP DP  RH WIND       PRES   REMARKS
WRAY           CLOUDY    51  48  90 NW7       29.94S
IMPERIAL       CLOUDY    52  48  86 NW9       29.92S
OGALLALA       CLOUDY    53  52  96 CALM      29.93S
NORTH PLATTE   MOCLDY    52  50  93 N6        29.89S
MCCOOK         PTCLDY    52  49  89 W9        29.88S
LEXINGTON      CLOUDY    56  54  93 NW12      29.85R
PAXTON           N/A     54  52  92 CALM        N/A
GOTHENBURG       N/A     54  50  86 NW5         N/A
CALLAWAY         N/A     56  55  96 NW7         N/A
$$

...NORTH PLATTE AREA...

CITY           SKY/WX    TMP DP  RH WIND       PRES   REMARKS
AIRPORT        MOCLDY    52  50  93 N6        29.89S
DOWNTOWN         N/A     52  50  92 W3          N/A
$$

...SOME WEATHER OBSERVATIONS FROM AROUND THE REGION...

CITY           SKY/WX    TMP DP  RH WIND       PRES   REMARKS
DENVER         MOCLDY    48  43  82 SW8       30.00F
LARAMIE        CLOUDY    38  36  92 E3        30.05F
CHEYENNE       PTCLDY    43  38  82 W7        30.01F
SCOTTSBLUFF    FOG       45  45 100 NW6       29.96R VSB 3/4
RAPID CITY     CLOUDY    52  51  97 NE3       29.95S
PIERRE         MOCLDY    52  50  93 N9        29.90S
WINNER         MOCLDY    52  47  83 NW3       29.89S
SIOUX FALLS    CLOUDY    55  53  93 N9        29.81R
OMAHA          LGT RAIN  64  57  78 S16       29.78S
GRAND ISLAND   CLOUDY    57  55  93 N13       29.77F
KANSAS CITY    RAIN      60  59  96 NW9       29.77F FOG
WICHITA        CLOUDY    60  58  92 CALM      29.81F
HAYS           CLOUDY    55  46  71 W5        29.85R
LIBERAL        CLEAR     55  48  76 CALM      29.92R
GOODLAND       PTCLDY    49  46  90 NW9       29.93F
$$



USA.gov is the U.S. government's official web portal to all federal, state and local government web resources and services.